This is the latest recevied weather packets stored in our database for station/object KY0TEQ-13. If no packets are shown the sender has not sent any weather packets the latest 10 day(s).
| Time | Temp. | Humidity | Pressure | Rain* | Wind** | Luminosity | Snow |
|---|---|---|---|---|---|---|---|
| 1788046642 | 25.56° C | 29% | 1308.6 hPa | 0 mm | - | 57 W/m² | - |
| 1788046338 | 25.56° C | 28% | 1308.6 hPa | 0 mm | - | 79 W/m² | - |
| 1788046035 | 26.11° C | 28% | 1308.5 hPa | 0 mm | - | 111 W/m² | - |
| 1788045731 | 26.11° C | 27% | 1308.5 hPa | 0 mm | - | 141 W/m² | - |
| 1788045437 | 26.11° C | 26% | 1308.5 hPa | 0 mm | - | 157 W/m² | - |
| 1788045122 | 26.67° C | 26% | 1308.5 hPa | 0 mm | - | 167 W/m² | - |
| 1788044820 | 26.67° C | 26% | 1308.6 hPa | 0 mm | - | 199 W/m² | - |
| 1788044516 | 26.67° C | 27% | 1308.4 hPa | 0 mm | - | 224 W/m² | - |
| 1788044210 | 26.67° C | 27% | 1308.3 hPa | 0 mm | - | 198 W/m² | - |
| 1788043906 | 26.11° C | 27% | 1308.4 hPa | 0 mm | - | 176 W/m² | - |
| 1788043601 | 26.11° C | 27% | 1308.6 hPa | 0 mm | - | 182 W/m² | - |
| 1788043295 | 26.67° C | 27% | 1308.6 hPa | 0 mm | - | 176 W/m² | - |
| 1788042991 | 27.22° C | 26% | 1308.8 hPa | 0 mm | - | 291 W/m² | - |
| 1788042686 | 27.78° C | 26% | 1308.6 hPa | 0 mm | - | 313 W/m² | - |
| 1788042385 | 26.11° C | 28% | 1308.8 hPa | 0 mm | - | 379 W/m² | - |
| 1788042085 | 26.11° C | 28% | 1308.8 hPa | 0 mm | - | 164 W/m² | - |
| 1788041780 | 26.11° C | 27% | 1309 hPa | 0 mm | - | 183 W/m² | - |
| 1788041476 | 26.67° C | 27% | 1308.9 hPa | 0 mm | - | 208 W/m² | - |
| 1788041176 | 26.67° C | 27% | 1309.3 hPa | 0 mm | - | 331 W/m² | - |
| 1788040869 | 26.11° C | 27% | 1309.5 hPa | 0 mm | - | 409 W/m² | - |
| 1788040568 | 26.67° C | 28% | 1309.1 hPa | 0 mm | - | 399 W/m² | - |
| 1788040264 | 26.11° C | 27% | 1309.5 hPa | 0 mm | - | 283 W/m² | - |
| 1788039963 | 26.67° C | 27% | 1309.6 hPa | 0 mm | - | 220 W/m² | - |
| 1788039658 | 26.67° C | 27% | 1309.6 hPa | 0 mm | - | 561 W/m² | - |
| 1788039353 | 27.22° C | 25% | 1309.7 hPa | 0 mm | - | 366 W/m² | - |
* Rain latest hour (hover to see other rain measurements)
** Current wind speed in m/s (hover to see current wind gust speed)